www.pogodaiklimat.ru

Погода и климат >> Архив погоды >> Россия >> Тюменская область >> Тюмень


АРХИВ ПОГОДЫ в Тюмени

Время (UTC), дата Ветер
(напр.,м/с)
 
Видим.   Явления Облачность Т
(С)
Тd
(С)
f
(%)
Тe
(С)
Тes
(С)
Комфортность P
(гПа)
Po
(гПа)
Тmin
(С)
Tmax
(С)
R
(мм)
R24
(мм)
S
(см)
21 18.09 ЮВ 2 20 км 10/0
[Ci sp]
+14.4 +5.1 54 +14 +14 тепло 1013.3 1001.2
00 19.09 ЮВ 3 20 км 8/0
[Ci fib]
+11.6 +5.2 65 +10 +10 тепло 1011.5 999.4
03 19.09 В 4 4000 м 9/0
[Ac lent Ci sp]
+10.9 +5.1 67 +9 +9 по сезону 1010.0 997.9 +10.4
06 19.09 ЮВ 4 4000 м 3/0
[Ci sp]
+16.0 +5.5 50 +15 +19 тепло 1007.2 995.3
09 19.09 ЮВ 5
{10}
4000 м 8/0
[Ac trans]
+17.9 +5.6 44 +18 +19 тепло 1005.2 993.4
12 19.09 В 4 4000 м 9/3 600 м
[Sc Ac trans Ci sp]
+18.6 +5.8 43 +19 +19 тепло 1003.9 992.1
15 19.09 В 5
{11}
20 км 10/0
[Ac trans]
+16.9 +4.9 45 +16 +16 тепло 1003.8 991.9 +19.5
18 19.09 В 4
{12}
20 км 10/0
[Ac trans]
+15.0 +3.8 47 +14 +14 тепло 1003.1 991.2
21 19.09 В 4 20 км в посл. час ливневой дождь 10/5 600 м
[Cb cap Ac As]
+13.1 +4.5 56 +12 +12 тепло 1001.7 989.7
00 20.09 В 3 20 км {ливн. осадки} 10/0
[Ac und]
+11.2 +3.1 57 +10 +10 тепло 1001.2 989.1
03 20.09 В 2 4000 м в посл. час ливневой дождь 9/8 600 м
[Cb cap Ac trans Ci fib]
+10.4 +3.8 64 +9 +9 тепло 1001.4 989.3 +10.0 0.0
06 20.09 В 2 4000 м {ливн. осадки} 6/0
[Ac As Ci fib]
+15.2 +6.1 55 +15 +19 тепло 1001.2 989.3
09 20.09 Ю 3 4000 м 6/4 1000 м
[Cu med, cong Ci fib]
+19.3 +8.0 48 +20 +23 тепло 1001.1 989.4
12 20.09 ЮВ 2 4000 м 8/3 600 м
[Cu med, cong Ac trans Ci fib]
+18.7 +8.6 52 +20 +20 тепло 1001.9 990.2
15 20.09 СВ 1 20 км 8/0
[Ac As Ci sp]
+14.5 +10.0 74 +15 +15 тепло 1002.6 990.7 +19.5
18 20.09 штиль 0 20 км 8/0
[Ac trans]
+13.0 +9.8 81 +13 +13 тепло 1002.2 990.2
21 20.09 СЗ 1 20 км 10/0
[Ac As]
+12.5 +10.7 89 +12 +12 тепло 1001.0 989.0
00 21.09 С 1 10 км слабый дождь 10/0
[Ac As]
+11.5 +9.2 86 +11 +11 тепло 1000.6 988.6
03 21.09 СВ 2 4000 м в посл. час ливневой дождь 9/3 600 м
[Cb cap Ac trans Ci sp]
+10.3 +9.2 93 +9 +9 тепло 1001.2 989.1 +10.3
06 21.09 СВ 3 4000 м {ливн. осадки, дождь} 8/3 600 м
[Cu med, cong Ac trans Ci fib]
+13.7 +9.7 77 +13 +14 тепло 1001.2 989.3 +10.2
09 21.09 С 2 4000 м 10/8 600 м
[Cu med, cong Ci sp]
+16.1 +10.0 67 +16 +17 тепло 1001.7 989.9
12 21.09 СЗ 2 4000 м 10/9 600 м
[Cu med, cong Ac trans Ci ing]
+16.3 +10.0 66 +16 +16 тепло 1001.9 990.1
15 21.09 СЗ 3 20 км 10/9 600 м
[Sc Ac As]
+14.3 +10.8 79 +13 +13 тепло 1003.2 991.3 +17.3
18 21.09 СЗ 3 10 км слабый дождь 10/0
[Ac As]
+12.3 +10.5 89 +11 +11 тепло 1003.7 991.7
21 21.09 СЗ 2 10 км слабый дождь 10/0
[Ac As]
+11.4 +10.5 94 +10 +10 тепло 1004.7 992.6
00 22.09 СЗ 3 н/о н/о +10.5 +9.4 93 +8 +8 тепло 1005.6 993.5
03 22.09 СЗ 3 4000 м слабый ливневой дождь 10/10
[Cb cap]
+10.0 +9.4 96 +8 +8 по сезону 1007.3 995.1 +10.0 0.8
06 22.09 СЗ 3 4000 м {ливн. осадки} 10/10 600 м
[Cu Sc]
+11.8 +9.4 85 +10 +10 по сезону 1008.0 995.9
09 22.09 З 4 4000 м 10/10 600 м
[Cu Sc]
+13.7 +8.9 73 +12 +12 тепло 1008.7 996.7
12 22.09 СЗ 4
{10}
4000 м слабый ливневой дождь 10/6 600 м
[Cb cap Ac trans]
+11.3 +8.8 85 +9 +9 по сезону 1010.2 998.0
15 22.09 СЗ 2 20 км {ливн. осадки} 9/9 600 м
[Sc]
+10.9 +8.0 82 +10 +10 по сезону 1011.6 999.4 +14.1 0.3
18 22.09 СЗ 2 20 км {ливн. осадки} 10/0
[Ac As]
+10.5 +7.3 81 +9 +9 тепло 1012.4 1000.2
21 22.09 СЗ 2 20 км 6/6 600 м
[Sc]
+9.3 +6.8 84 +8 +8 тепло 1013.4 1001.1
00 23.09 СЗ 2 20 км {ливн. осадки} 3/1 600 м
[Sc Ac trans]
+7.3 +6.5 95 +5 +5 по сезону 1015.2 1002.8
03 23.09 СЗ 3 4000 м 8/1 600 м
[Sc Ci sp]
+7.4 +6.1 91 +4 +5 по сезону 1016.9 1004.5 +6.4 0.1
06 23.09 СЗ 3 4000 м 4/1 1000 м
[Cu med, cong Ci fib]
+12.2 +7.4 72 +11 +14 тепло 1017.5 1005.3
09 23.09 СЗ 3 4000 м 8/6 600 м
[Cu med, cong Ci fib]
+15.6 +5.2 50 +15 +17 тепло 1017.4 1005.3
12 23.09 З 3 4000 м 4/0
[Ac trans Ci fib]
+16.1 +5.6 50 +16 +16 тепло 1017.4 1005.4
15 23.09 ЮЗ 1 20 км 3/0
[Ac trans Ci fib]
+7.9 +6.1 88 +7 +7 по сезону 1017.9 1005.5 +16.4
18 23.09 штиль 0 20 км ясно +4.8 +4.2 96 +4 +4 по сезону 1018.2 1005.7
21 23.09 штиль 0 20 км ясно +3.7 +3.4 98 +2 +2 по сезону 1018.1 1005.5
00 24.09 ЮЗ 1 20 км ясно +5.0 +4.5 97 +4 +4 по сезону 1018.2 1005.7
03 24.09 ЮЗ 1 4000 м ясно +6.6 +5.2 91 +5 +6 по сезону 1017.9 1005.5 +3.5
06 24.09 ЮЗ 3 4000 м ясно +14.5 +8.4 67 +14 +18 тепло 1017.7 1005.6
09 24.09 ЮЗ 3 4000 м 3/0
[Ci fib]
+20.1 +5.2 38 +21 +25 комфорт 1016.8 1005.0
12 24.09 ЮЗ 2 4000 м 3/0
[Ci fib]
+20.3 +5.6 38 +22 +22 комфорт 1016.8 1005.0
15 24.09 Ю 1 20 км 3/0
[Ci fib]
+10.2 +7.4 83 +10 +10 тепло 1017.6 1005.3 +20.9
18 24.09 Ю 1 20 км ясно +8.5 +7.3 92 +8 +8 тепло 1017.6 1005.3
21 24.09 штиль 0 20 км ясно +6.8 +6.3 97 +6 +6 по сезону 1018.1 1005.7
00 25.09 ЮЗ 1 20 км ясно +8.2 +7.9 98 +7 +7 тепло 1018.4 1006.0
03 25.09 ЮЗ 1 4000 м ясно +10.5 +9.4 93 +10 +11 тепло 1019.1 1006.8 +6.5
06 25.09 ЮЗ 2 4000 м 3/1 600 м
[Cu hum Ac trans Ci fib]
+19.5 +10.6 56 +21 +25 комфорт 1019.4 1007.5
09 25.09 Ю 3 4000 м 3/0
[Ci fib]
+24.0 +10.5 43 +25 +29 комфорт 1018.7 1007.0
12 25.09 Ю 3 4000 м 4/0
[Ac trans Ci fib]
+23.5 +11.0 45 +25 +25 комфорт 1018.7 1006.9
15 25.09 ЮВ 2 20 км ясно +18.2 +11.2 64 +19 +19 тепло 1019.4 1007.4 +24.5
18 25.09 Ю 2 4000 м 3/0
[Ci fib]
+16.0 +9.5 65 +16 +16 тепло 1019.8 1007.8

 

Местоположение метеостанции Тюмень (Тюменская область, Россия): широта 57.12 долгота 65.43 высота над уровнем моря 102 м.

В архиве по умолчанию представлена погода в Тюмени за последнюю неделю. Архивные данные за месяц целиком и за предыдущие месяцы, начиная с января 2011 года, Вы можете получить, выбрав интересующий диапазон дат из раскрывающегося списка и нажав кнопку "Ввод!".


*Определитесь, кто Вы:
робот инопланетянин человек

Внимание! Время в таблицах - всемирное. Для получения местного времени необходимо прибавить поправку, которая в Тюмени равна 5 ч.

Смотрите также архив погоды в соседних городах и на ближайших метеорологических станциях:

Погода в Тугулыме (Свердловская область, Россия) (46 км)
Погода в Ялуторовске (Тюменская область, Россия) (74 км)
Погода в Шатрово (Курганская область, Россия) (82 км)
Погода в Ярково (Тюменская область, Россия) (105 км)
Погода в Тавде (Свердловская область, Россия) (106 км)
Погода в Бутке (Свердловская область, Россия) (110 км)
Погода в Памятном (Курганская область, Россия) (123 км)
Погода в Туринске (Свердловская область, Россия) (147 км)
Погода в Ирбите (Свердловская область, Россия) (158 км)
Погода в Шадринске (Курганская область, Россия) (160 км)

Пояснения к столбцам:

Ветер - указаны скорость ветра в м/с - средняя за 10 мин, порывы в срок и между сроками (в фигурных скобках) и направление, откуда дует ветер: С - северный, СВ - северо-восточный, В - восточный, ЮВ - юго-восточный, Ю - южный, ЮЗ - юго-западный, З - западный, СЗ - северо-западный.
Видимость - горизонтальная дальность видимости в метрах или километрах. При видимости от 1 до 10 км при отсутствии осадков обычно наблюдается дымка, при ухудшении видимости до 1 км и менее - туман. В сухую погоду видимость может ухудшаться дымом, пылью или мглою.
Явления - указаны атмосферные явления, наблюдавшиеся в срок или в последний час перед сроком; фигурными скобками обозначены явления, наблюдавшиеся между сроками (за 1-3 часа до срока); квадратными скобками обозначены град или гололедные отложения с указанием их диаметра в мм.
Облачность - указаны через наклонную черту общая и нижняя облачность в баллах и высота нижней границы облаков в метрах; квадратными скобками обозначены формы облаков: Ci - перистые, Cs - перисто-слоистые, Cc - перисто-кучевые, Ac - высококучевые, As - высокослоистые, Sc - слоисто-кучевые, Ns - слоисто-дождевые, Cu - кучевые, Cb - кучево-дождевые. Подробнее классификацию облаков см. в Атласе облаков (PDF).
T - Температура воздуха - температура, измеренная на высоте 2 м над землей.
Td - Температура точки росы - температура, при понижении до которой содержащийся в воздухе водяной пар достигнет насыщения.
f - Относительная влажность воздуха - влажноcть воздуха, измеренная на высоте 2 м над землей.
Te - Эффективная температура - температура, которую ощущает одетый по сезону человек в тени. Характеристика душности погоды. При расчете учитывается влияние влажности воздуха и скорости ветра на теплоощущения человека.
Tes - Эффективная температура на солнце - температура, которую ощущает человек, с поправкой на солнечный нагрев. Характеристика знойности погоды. Зависит от высоты солнца над горизонтом, облачности и скорости ветра. Ночью, в пасмурную погоду, а также при ветре 12 м/с и более поправка равна нулю.
P - Атмосферное давление - приведенное к уровню моря атмосферное давление.
Po - Атмосферное давление - измеренное на уровне метеостанции атмосферное давление.
Tmin - Минимальная температура - минимум температуры воздуха на высоте 2 м над землей.
Tmax - Максимальная температура - максимум температуры воздуха на высоте 2 м над землей.
R - Количество осадков - Количество выпавших осадков за период времени, мм. При наведении курсора мыши на число - период времени, за который выпало указанное количество осадков.
R24 - Количество осадков - Количество выпавших осадков за 24 часа, мм.
S - Снежный покров - Высота снежного покрова, см. При наведении курсора мыши на число - состояние снежного покрова и степень покрытия местности в баллах.